Regional Weather Roundup
Issued by NWS Sioux Falls, SD

Home | Current Version | Previous Version | Graphics & Text | Print | Product List | Glossary On
Versions: 1 2 3 4 5 6 7 8 9 10 11 12 13 14 15 16 17 18 19 20 21 22 23 24 25 26 27 28 29 30 31 32 33 34 35 36 37 38 39 40 41 42 43 44 45 46 47 48 49 50
155
ASUS43 KFSD 011002
RWRFSD

WEATHER ROUNDUP FOR SE SOUTH DAKOTA/SW MINNESOTA/NW IOWA
NATIONAL WEATHER SERVICE SIOUX FALLS SD
500 AM CDT SUN MAY 01 2016

NOTE: "FAIR" INDICATES FEW OR NO CLOUDS BELOW 12,000 FEET WITH NO
SIGNIFICANT WEATHER AND OR OBSTRUCTIONS TO VISIBILITY.


SDZ038>040-050-052>070-011100-
SOUTHEAST SOUTH DAKOTA

CITY           SKY/WX    TMP DP  RH WIND       PRES   REMARKS
BROOKINGS      CLOUDY    38  30  73 N6        30.14R
CHAMBERLAIN    NOT AVBL
HURON          PTCLDY    38  31  76 N10       30.18R
MADISON        PTSUNNY   37  37 100 NE12      30.13R
MITCHELL       MOCLDY    41  37  86 N8        30.16R
SIOUX FALLS    LGT RAIN  42  39  89 NE14      30.11R
WINNER         FAIR      38  35  89 NW6       30.17R
YANKTON        CLOUDY    45  39  81 N14G23    30.08R
$$

MNZ071-072-080-081-089-090-097-098-011100-
SOUTHWEST MINNESOTA

CITY           SKY/WX    TMP DP  RH WIND       PRES   REMARKS
FAIRMONT       CLOUDY    43  36  75 NE12      30.08R
JACKSON        CLOUDY    41  39  93 NE14      30.08S
LUVERNE        RAIN      41  37  87 NE13G18   30.10S
MARSHALL       CLOUDY    40  33  76 N9        30.16R
MONTEVIDEO     CLOUDY    36  30  80 NE7       30.19R
REDWOOD FALLS  CLOUDY    41  30  65 N7        30.14R
TRACY          CLOUDY    41  36  81 NE7       30.13S
WINDOM         LGT RAIN  41  39  93 N10       30.10S
WORTHINGTON    CLOUDY    41  39  93 NE17      30.09R
$$

IAZ001>003-012>014-020>022-031-032-NEZ013-014-SDZ071-011100-
NORTHWEST IOWA

CITY           SKY/WX    TMP DP  RH WIND       PRES   REMARKS
DENISON        CLOUDY    43  41  93 NE14      29.96S FOG
ESTHERVILLE    CLOUDY    41  40  96 NE17      30.06R FOG
SIOUX CITY     LGT RAIN  44  40  85 NE14      30.03R
SPENCER        CLOUDY    42  40  92 NE18      30.05R FOG
STORM LAKE     CLOUDY    41  41 100 NE20G26   30.01S FOG
$$

ABBREVIATIONS USED IN REMARKS
   TC - TEMPERATURE IN CELSIUS
  WCI - WIND CHILL INDEX
   HX - HEAT INDEX
  VSB - VISIBILITY





USA.gov is the U.S. government's official web portal to all federal, state and local government web resources and services.